Weather in Rafha

Saudi Arabia     29°37′52″N   43°30′10″E
temp.,
°C
wind,
m/s
gust,
m/s
humid.,
%
clouds,
%
prec.,
mm/h
press.,
hPa
HPBL,
m
13 june, sun
sun1300:00+28nnw56130 0.0 100960
03:00+26nnw44150 0.0 100933
06:00+26nw45150 0.0 101058
09:00+33n67110 0.0 1010796
12:00+38n68100 0.0 10081730
15:00+40n8990 0.0 10072848
18:00+37n68110 0.0 1006659
21:00+32nne44150 0.0 100823
14 june, mon
mon1400:00+29e44180 0.0 100725
03:00+27ene33200 0.0 100615
06:00+27e11190 0.0 100811
09:00+34nw33120 0.0 1008567
12:00+39nw44100 0.0 10071586
15:00+41nnw5680 0.0 10042533
18:00+39n4690 0.0 1003216
21:00+34ene55120 0.0 100443
15 june, tue
tue1500:00+31e45140 0.0 100239
03:00+29se22150 0.0 100211
06:00+30wsw34150 0.0 100425
09:00+37wsw33100 0.0 1004571
12:00+42sw3380 0.0 10021967
15:00+44nnw3570 0.0 10003522
18:00+42nnw6870 0.0 1001392
21:00+35nw59120 0.0 1003105
16 june, wed
wed1600:00+32n46150 0.0 100364
03:00+29nnw57190 0.0 100474
06:00+27nw47240 0.0 1006137
09:00+34n78140 0.0 1007811
12:00+38nnw77100 0.0 10061674
15:00+40nnw8990 0.0 10042198
18:00+38nnw7890 0.0 1005939
21:00+32n45120 0.0 100636
17 june, thu
thu1700:00+30n44140 0.0 100627
03:00+27n44180 0.0 100635
06:00+26nnw48230 0.0 1008119
09:00+32nnw79160 0.0 1008953
12:00+37nnw89130 0.0 10071667
15:00+38nnw910100 0.0 10062074
18:00+37nnw79110 0.0 10051375
21:00+31nnw56170 0.0 100764